Вернуться в каталог

IRIDIUM 33 DEB

АктивенPO
NORAD 35625·DEBRIS·🇺🇸 United States

Запущен Sep 14, 1997 с Baikonur Cosmodrome

Loading…

Ближайшие Пролёты (ближайшие 24 часа)

TLE

УстаревающийSource: Space-Track

Эпоха: Sep 9, 2026, 19:13 UTC

1 35625U 97051QX  26252.80098529  .00002586  00000-0  89541-3 0  9992
2 35625  86.1836 263.8823 0104501  44.0263  77.7811 14.32296597699189

Отслеживайте IRIDIUM 33 DEB в реальном времени с AllMySat

Download on the App Store